Location: Acts Church of Fort Worth
(32.6786°N, 97.2668°W)
Time: 21:09:58
(UTC+00:00)

Delta 2 Rocket - Pass Details

Date: 18 January 2026
Orbit: 347 x 474 km, 35.6° (Epoch: 10 February)

Event Time Altitude Azimuth Distance (km) Brightness Sun altitude
Exits shadow 11:35:40 41° 116° (ESE) 618 4.0 -23.9°
Drops below altitude 10° 11:38:11 10° 82° (E) 1,458 6.5 -23.4°
Sets 11:40:15 0° 77° (ENE) 2,290 7.6 -23.0°
